Year,Month,Day,Hour,Minute,Value (Times are PST for temperature in C)
2019,08,04,00,00,15.20
2019,08,04,00,01,15.20
2019,08,04,00,02,15.20
2019,08,04,00,03,15.20
2019,08,04,00,04,15.10
2019,08,04,00,05,15.10
2019,08,04,00,06,15.10
2019,08,04,00,07,15.10
2019,08,04,00,08,15.10
2019,08,04,00,09,15.10
2019,08,04,00,10,15.10
2019,08,04,00,11,15.20
2019,08,04,00,12,15.20
2019,08,04,00,13,15.20
2019,08,04,00,14,15.20
2019,08,04,00,15,15.30
2019,08,04,00,16,15.20
2019,08,04,00,17,15.20
2019,08,04,00,18,15.20
2019,08,04,00,19,15.10
2019,08,04,00,20,15.20
2019,08,04,00,21,15.20
2019,08,04,00,22,15.20
2019,08,04,00,23,15.20
2019,08,04,00,24,15.20
2019,08,04,00,25,15.20
2019,08,04,00,26,15.10
2019,08,04,00,27,15.00
2019,08,04,00,28,15.00
2019,08,04,00,29,15.00
2019,08,04,00,30,14.90
2019,08,04,00,31,14.90
2019,08,04,00,32,14.90
2019,08,04,00,33,14.90
2019,08,04,00,34,14.90
2019,08,04,00,35,14.80
2019,08,04,00,36,14.80
2019,08,04,00,37,14.80
2019,08,04,00,38,14.80
2019,08,04,00,39,14.80
2019,08,04,00,40,14.70
2019,08,04,00,41,14.70
2019,08,04,00,42,14.70
2019,08,04,00,43,14.70
2019,08,04,00,44,14.70
2019,08,04,00,45,14.70
2019,08,04,00,46,14.70
2019,08,04,00,47,14.60
2019,08,04,00,48,14.60
2019,08,04,00,49,14.60
2019,08,04,00,50,14.60
2019,08,04,00,51,14.60
2019,08,04,00,52,14.60
2019,08,04,00,53,14.60
2019,08,04,00,54,14.60
2019,08,04,00,55,14.60
2019,08,04,00,56,14.60
2019,08,04,00,57,14.60
2019,08,04,00,58,14.60
2019,08,04,00,59,14.60
2019,08,04,01,00,14.60
2019,08,04,01,01,14.50
2019,08,04,01,02,14.60
2019,08,04,01,03,14.60
2019,08,04,01,04,14.60
2019,08,04,01,05,14.70
2019,08,04,01,06,14.70
2019,08,04,01,07,14.70
2019,08,04,01,08,14.70
2019,08,04,01,09,14.70
2019,08,04,01,10,14.70
2019,08,04,01,11,14.60
2019,08,04,01,12,14.60
2019,08,04,01,13,14.50
2019,08,04,01,14,14.50
2019,08,04,01,15,14.50
2019,08,04,01,16,14.50
2019,08,04,01,17,14.50
2019,08,04,01,18,14.50
2019,08,04,01,19,14.40
2019,08,04,01,20,14.40
2019,08,04,01,21,14.40
2019,08,04,01,22,14.40
2019,08,04,01,23,14.40
2019,08,04,01,24,14.40
2019,08,04,01,25,14.40
2019,08,04,01,26,14.30
2019,08,04,01,27,14.30
2019,08,04,01,28,14.20
2019,08,04,01,29,14.10
2019,08,04,01,30,14.10
2019,08,04,01,31,14.10
2019,08,04,01,32,14.10
2019,08,04,01,33,14.10
2019,08,04,01,34,14.20
2019,08,04,01,35,14.20
2019,08,04,01,36,14.10
2019,08,04,01,37,14.10
2019,08,04,01,38,14.10
2019,08,04,01,39,14.10
2019,08,04,01,40,14.00
2019,08,04,01,41,14.00
2019,08,04,01,42,14.00
2019,08,04,01,43,14.00
2019,08,04,01,44,13.90
2019,08,04,01,45,13.90
2019,08,04,01,46,13.90
2019,08,04,01,47,13.90
2019,08,04,01,48,13.90
2019,08,04,01,49,13.90
2019,08,04,01,50,13.80
2019,08,04,01,51,13.80
2019,08,04,01,52,13.80
2019,08,04,01,53,13.80
2019,08,04,01,54,13.90
2019,08,04,01,55,13.90
2019,08,04,01,56,13.90
2019,08,04,01,57,13.90
2019,08,04,01,58,13.90
2019,08,04,01,59,13.90
2019,08,04,02,00,13.90
2019,08,04,02,01,13.90
2019,08,04,02,02,13.90
2019,08,04,02,03,13.90
2019,08,04,02,04,13.80
2019,08,04,02,05,13.80
2019,08,04,02,06,13.80
2019,08,04,02,07,13.70
2019,08,04,02,08,13.70
2019,08,04,02,09,13.70
2019,08,04,02,10,13.70
2019,08,04,02,11,13.70
2019,08,04,02,12,13.70
2019,08,04,02,13,13.80
2019,08,04,02,14,13.80
2019,08,04,02,15,13.80
2019,08,04,02,16,13.80
2019,08,04,02,17,13.80
2019,08,04,02,18,13.80
2019,08,04,02,19,13.90
2019,08,04,02,20,13.90
2019,08,04,02,21,13.90
2019,08,04,02,22,13.90
2019,08,04,02,23,13.80
2019,08,04,02,24,13.80
2019,08,04,02,25,13.80
2019,08,04,02,26,13.80
2019,08,04,02,27,13.80
2019,08,04,02,28,13.70
2019,08,04,02,29,13.70
2019,08,04,02,30,13.70
2019,08,04,02,31,13.70
2019,08,04,02,32,13.70
2019,08,04,02,33,13.70
2019,08,04,02,34,13.80
2019,08,04,02,35,13.90
2019,08,04,02,36,13.90
2019,08,04,02,37,14.00
2019,08,04,02,38,14.00
2019,08,04,02,39,13.90
2019,08,04,02,40,13.90
2019,08,04,02,41,13.80
2019,08,04,02,42,13.70
2019,08,04,02,43,13.70
2019,08,04,02,44,13.60
2019,08,04,02,45,13.60
2019,08,04,02,46,13.60
2019,08,04,02,47,13.60
2019,08,04,02,48,13.60
2019,08,04,02,49,13.60
2019,08,04,02,50,13.50
2019,08,04,02,51,13.50
2019,08,04,02,52,13.40
2019,08,04,02,53,13.40
2019,08,04,02,54,13.40
2019,08,04,02,55,13.40
2019,08,04,02,56,13.30
2019,08,04,02,57,13.30
2019,08,04,02,58,13.30
2019,08,04,02,59,13.20
2019,08,04,03,00,13.20
2019,08,04,03,01,13.20
2019,08,04,03,02,13.20
2019,08,04,03,03,13.20
2019,08,04,03,04,13.20
2019,08,04,03,05,13.20
2019,08,04,03,06,13.30
2019,08,04,03,07,13.30
2019,08,04,03,08,13.40
2019,08,04,03,09,13.40
2019,08,04,03,10,13.50
2019,08,04,03,11,13.50
2019,08,04,03,12,13.50
2019,08,04,03,13,13.50
2019,08,04,03,14,13.50
2019,08,04,03,15,13.50
2019,08,04,03,16,13.40
2019,08,04,03,17,13.40
2019,08,04,03,18,13.40
2019,08,04,03,19,13.40
2019,08,04,03,20,13.30
2019,08,04,03,21,13.20
2019,08,04,03,22,13.20
2019,08,04,03,23,13.20
2019,08,04,03,24,13.20
2019,08,04,03,25,13.20
2019,08,04,03,26,13.20
2019,08,04,03,27,13.30
2019,08,04,03,28,13.30
2019,08,04,03,29,13.30
2019,08,04,03,30,13.40
2019,08,04,03,31,13.40
2019,08,04,03,32,13.40
2019,08,04,03,33,13.40
2019,08,04,03,34,13.40
2019,08,04,03,35,13.40
2019,08,04,03,36,13.40
2019,08,04,03,37,13.30
2019,08,04,03,38,13.30
2019,08,04,03,39,13.20
2019,08,04,03,40,13.20
2019,08,04,03,41,13.20
2019,08,04,03,42,13.10
2019,08,04,03,43,13.10
2019,08,04,03,44,13.10
2019,08,04,03,45,13.10
2019,08,04,03,46,13.10
2019,08,04,03,47,13.10
2019,08,04,03,48,13.10
2019,08,04,03,49,13.10
2019,08,04,03,50,13.10
2019,08,04,03,51,13.10
2019,08,04,03,52,13.20
2019,08,04,03,53,13.10
2019,08,04,03,54,13.10
2019,08,04,03,55,13.10
2019,08,04,03,56,13.10
2019,08,04,03,57,13.10
2019,08,04,03,58,13.10
2019,08,04,03,59,13.00
2019,08,04,04,00,13.00
2019,08,04,04,01,13.00
2019,08,04,04,02,13.00
2019,08,04,04,03,13.00
2019,08,04,04,04,13.00
2019,08,04,04,05,13.10
2019,08,04,04,06,13.10
2019,08,04,04,07,13.10
2019,08,04,04,08,13.20
2019,08,04,04,09,13.20
2019,08,04,04,10,13.20
2019,08,04,04,11,13.20
2019,08,04,04,12,13.20
2019,08,04,04,13,13.20
2019,08,04,04,14,13.10
2019,08,04,04,15,13.10
2019,08,04,04,16,13.10
2019,08,04,04,17,13.00
2019,08,04,04,18,13.00
2019,08,04,04,19,12.90
2019,08,04,04,20,12.80
2019,08,04,04,21,12.80
2019,08,04,04,22,12.70
2019,08,04,04,23,12.70
2019,08,04,04,24,12.70
2019,08,04,04,25,12.60
2019,08,04,04,26,12.60
2019,08,04,04,27,12.60
2019,08,04,04,28,12.50
2019,08,04,04,29,12.50
2019,08,04,04,30,12.40
2019,08,04,04,31,12.40
2019,08,04,04,32,12.40
2019,08,04,04,33,12.30
2019,08,04,04,34,12.30
2019,08,04,04,35,12.20
2019,08,04,04,36,12.20
2019,08,04,04,37,12.10
2019,08,04,04,38,12.10
2019,08,04,04,39,12.10
2019,08,04,04,40,12.10
2019,08,04,04,41,12.10
2019,08,04,04,42,12.10
2019,08,04,04,43,12.10
2019,08,04,04,44,12.10
2019,08,04,04,45,12.10
2019,08,04,04,46,12.00
2019,08,04,04,47,12.00
2019,08,04,04,48,11.90
2019,08,04,04,49,11.90
2019,08,04,04,50,11.90
2019,08,04,04,51,11.90
2019,08,04,04,52,11.90
2019,08,04,04,53,11.90
2019,08,04,04,54,11.90
2019,08,04,04,55,11.90
2019,08,04,04,56,12.00
2019,08,04,04,57,12.10
2019,08,04,04,58,12.10
2019,08,04,04,59,12.20
2019,08,04,05,00,12.20
2019,08,04,05,01,12.30
2019,08,04,05,02,12.30
2019,08,04,05,03,12.30
2019,08,04,05,04,12.30
2019,08,04,05,05,12.30
2019,08,04,05,06,12.30
2019,08,04,05,07,12.30
2019,08,04,05,08,12.30
2019,08,04,05,09,12.30
2019,08,04,05,10,12.20
2019,08,04,05,11,12.20
2019,08,04,05,12,12.10
2019,08,04,05,13,12.10
2019,08,04,05,14,12.00
2019,08,04,05,15,12.00
2019,08,04,05,16,11.90
2019,08,04,05,17,11.80
2019,08,04,05,18,11.80
2019,08,04,05,19,11.80
2019,08,04,05,20,11.90
2019,08,04,05,21,12.00
2019,08,04,05,22,12.10
2019,08,04,05,23,12.20
2019,08,04,05,24,12.30
2019,08,04,05,25,12.30
2019,08,04,05,26,12.30
2019,08,04,05,27,12.40
2019,08,04,05,28,12.30
2019,08,04,05,29,12.30
2019,08,04,05,30,12.30
2019,08,04,05,31,12.20
2019,08,04,05,32,12.20
2019,08,04,05,33,12.10
2019,08,04,05,34,12.10
2019,08,04,05,35,12.00
2019,08,04,05,36,12.00
2019,08,04,05,37,11.90
2019,08,04,05,38,11.90
2019,08,04,05,39,11.90
2019,08,04,05,40,11.90
2019,08,04,05,41,11.90
2019,08,04,05,42,11.90
2019,08,04,05,43,11.90
2019,08,04,05,44,11.90
2019,08,04,05,45,11.90
2019,08,04,05,46,11.90
2019,08,04,05,47,11.90
2019,08,04,05,48,11.90
2019,08,04,05,49,11.90
2019,08,04,05,50,11.90
2019,08,04,05,51,11.90
2019,08,04,05,52,11.90
2019,08,04,05,53,11.90
2019,08,04,05,54,11.90
2019,08,04,05,55,11.90
2019,08,04,05,56,11.90
2019,08,04,05,57,11.90
2019,08,04,05,58,11.80
2019,08,04,05,59,11.80
2019,08,04,06,00,11.80
2019,08,04,06,01,11.80
2019,08,04,06,02,11.80
2019,08,04,06,03,11.80
2019,08,04,06,04,11.90
2019,08,04,06,05,11.90
2019,08,04,06,06,12.00
2019,08,04,06,07,12.00
2019,08,04,06,08,12.00
2019,08,04,06,09,12.00
2019,08,04,06,10,12.00
2019,08,04,06,11,12.10
2019,08,04,06,12,12.10
2019,08,04,06,13,12.10
2019,08,04,06,14,12.20
2019,08,04,06,15,12.20
2019,08,04,06,16,12.20
2019,08,04,06,17,12.20
2019,08,04,06,18,12.20
2019,08,04,06,19,12.20
2019,08,04,06,20,12.10
2019,08,04,06,21,12.10
2019,08,04,06,22,12.10
2019,08,04,06,23,12.10
2019,08,04,06,24,12.00
2019,08,04,06,25,12.00
2019,08,04,06,26,11.90
2019,08,04,06,27,11.80
2019,08,04,06,28,11.80
2019,08,04,06,29,11.90
2019,08,04,06,30,12.00
2019,08,04,06,31,12.00
2019,08,04,06,32,12.00
2019,08,04,06,33,12.00
2019,08,04,06,34,12.10
2019,08,04,06,35,12.10
2019,08,04,06,36,12.20
2019,08,04,06,37,12.20
2019,08,04,06,38,12.20
2019,08,04,06,39,12.30
2019,08,04,06,40,12.30
2019,08,04,06,41,12.30
2019,08,04,06,42,12.30
2019,08,04,06,43,12.30
2019,08,04,06,44,12.30
2019,08,04,06,45,12.30
2019,08,04,06,46,12.30
2019,08,04,06,47,12.30
2019,08,04,06,48,12.30
2019,08,04,06,49,12.30
2019,08,04,06,50,12.30
2019,08,04,06,51,12.30
2019,08,04,06,52,12.30
2019,08,04,06,53,12.30
2019,08,04,06,54,12.30
2019,08,04,06,55,12.30
2019,08,04,06,56,12.40
2019,08,04,06,57,12.40
2019,08,04,06,58,12.50
2019,08,04,06,59,12.50
2019,08,04,07,00,12.60
2019,08,04,07,01,12.70
2019,08,04,07,02,12.80
2019,08,04,07,03,12.90
2019,08,04,07,04,12.90
2019,08,04,07,05,13.00
2019,08,04,07,06,13.10
2019,08,04,07,07,13.10
2019,08,04,07,08,13.10
2019,08,04,07,09,13.20
2019,08,04,07,10,13.20
2019,08,04,07,11,13.20
2019,08,04,07,12,13.30
2019,08,04,07,13,13.40
2019,08,04,07,14,13.50
2019,08,04,07,15,13.60
2019,08,04,07,16,13.70
2019,08,04,07,17,13.70
2019,08,04,07,18,13.80
2019,08,04,07,19,13.90
2019,08,04,07,20,14.00
2019,08,04,07,21,14.10
2019,08,04,07,22,14.20
2019,08,04,07,23,14.20
2019,08,04,07,24,14.30
2019,08,04,07,25,14.40
2019,08,04,07,26,14.40
2019,08,04,07,27,14.50
2019,08,04,07,28,14.50
2019,08,04,07,29,14.50
2019,08,04,07,30,14.60
2019,08,04,07,31,14.60
2019,08,04,07,32,14.60
2019,08,04,07,33,14.70
2019,08,04,07,34,14.70
2019,08,04,07,35,14.70
2019,08,04,07,36,14.80
2019,08,04,07,37,14.80
2019,08,04,07,38,14.80
2019,08,04,07,39,14.90
2019,08,04,07,40,14.90
2019,08,04,07,41,15.00
2019,08,04,07,42,15.00
2019,08,04,07,43,15.00
2019,08,04,07,44,15.00
2019,08,04,07,45,15.10
2019,08,04,07,46,15.00
2019,08,04,07,47,15.00
2019,08,04,07,48,14.90
2019,08,04,07,49,14.90
2019,08,04,07,50,14.90
2019,08,04,07,51,14.90
2019,08,04,07,52,14.90
2019,08,04,07,53,14.90
2019,08,04,07,54,14.90
2019,08,04,07,55,14.90
2019,08,04,07,56,15.00
2019,08,04,07,57,15.00
2019,08,04,07,58,15.10
2019,08,04,07,59,15.10
2019,08,04,08,00,15.20
2019,08,04,08,01,15.20
2019,08,04,08,02,15.30
2019,08,04,08,03,15.40
2019,08,04,08,04,15.40
2019,08,04,08,05,15.50
2019,08,04,08,06,15.60
2019,08,04,08,07,15.70
2019,08,04,08,08,15.80
2019,08,04,08,09,16.00
2019,08,04,08,10,16.00
2019,08,04,08,11,16.10
2019,08,04,08,12,16.20
2019,08,04,08,13,16.30
2019,08,04,08,14,16.40
2019,08,04,08,15,16.50
2019,08,04,08,16,16.60
2019,08,04,08,17,16.70
2019,08,04,08,18,16.70
2019,08,04,08,19,16.80
2019,08,04,08,20,16.80
2019,08,04,08,21,16.90
2019,08,04,08,22,17.00
2019,08,04,08,23,17.10
2019,08,04,08,24,17.10
2019,08,04,08,25,17.20
2019,08,04,08,26,17.30
2019,08,04,08,27,17.30
2019,08,04,08,28,17.40
2019,08,04,08,29,17.50
2019,08,04,08,30,17.60
2019,08,04,08,31,17.70
2019,08,04,08,32,17.80
2019,08,04,08,33,17.80
2019,08,04,08,34,17.90
2019,08,04,08,35,18.00
2019,08,04,08,36,18.10
2019,08,04,08,37,18.10
2019,08,04,08,38,18.10
2019,08,04,08,39,18.10
2019,08,04,08,40,18.20
2019,08,04,08,41,18.20
2019,08,04,08,42,18.20
2019,08,04,08,43,18.30
2019,08,04,08,44,18.40
2019,08,04,08,45,18.40
2019,08,04,08,46,18.50
2019,08,04,08,47,18.60
2019,08,04,08,48,18.70
2019,08,04,08,49,18.70
2019,08,04,08,50,18.70
2019,08,04,08,51,18.70
2019,08,04,08,52,18.70
2019,08,04,08,53,18.70
2019,08,04,08,54,18.70
2019,08,04,08,55,18.80
2019,08,04,08,56,18.80
2019,08,04,08,57,18.90
2019,08,04,08,58,18.90
2019,08,04,08,59,19.00
2019,08,04,09,00,19.10
2019,08,04,09,01,19.10
2019,08,04,09,02,19.10
2019,08,04,09,03,19.10
2019,08,04,09,04,19.10
2019,08,04,09,05,19.10
2019,08,04,09,06,19.10
2019,08,04,09,07,19.10
2019,08,04,09,08,19.10
2019,08,04,09,09,19.20
2019,08,04,09,10,19.20
2019,08,04,09,11,19.30
2019,08,04,09,12,19.30
2019,08,04,09,13,19.40
2019,08,04,09,14,19.40
2019,08,04,09,15,19.40
2019,08,04,09,16,19.50
2019,08,04,09,17,19.60
2019,08,04,09,18,19.60
2019,08,04,09,19,19.70
2019,08,04,09,20,19.80
2019,08,04,09,21,19.80
2019,08,04,09,22,19.90
2019,08,04,09,23,20.00
2019,08,04,09,24,20.10
2019,08,04,09,25,20.20
2019,08,04,09,26,20.30
2019,08,04,09,27,20.30
2019,08,04,09,28,20.40
2019,08,04,09,29,20.40
2019,08,04,09,30,20.40
2019,08,04,09,31,20.50
2019,08,04,09,32,20.60
2019,08,04,09,33,20.60
2019,08,04,09,34,20.70
2019,08,04,09,35,20.70
2019,08,04,09,36,20.70
2019,08,04,09,37,20.70
2019,08,04,09,38,20.80
2019,08,04,09,39,20.80
2019,08,04,09,40,20.90
2019,08,04,09,41,20.90
2019,08,04,09,42,21.00
2019,08,04,09,43,21.00
2019,08,04,09,44,21.00
2019,08,04,09,45,20.90
2019,08,04,09,46,20.90
2019,08,04,09,47,20.90
2019,08,04,09,48,20.90
2019,08,04,09,49,21.00
2019,08,04,09,50,21.10
2019,08,04,09,51,21.10
2019,08,04,09,52,21.20
2019,08,04,09,53,21.20
2019,08,04,09,54,21.30
2019,08,04,09,55,21.40
2019,08,04,09,56,21.50
2019,08,04,09,57,21.60
2019,08,04,09,58,21.70
2019,08,04,09,59,21.70
2019,08,04,10,00,21.80
2019,08,04,10,01,21.90
2019,08,04,10,02,21.90
2019,08,04,10,03,22.00
2019,08,04,10,04,22.00
2019,08,04,10,05,22.10
2019,08,04,10,06,22.10
2019,08,04,10,07,22.20
2019,08,04,10,08,22.20
2019,08,04,10,09,22.30
2019,08,04,10,10,22.30
2019,08,04,10,11,22.30
2019,08,04,10,12,22.40
2019,08,04,10,13,22.50
2019,08,04,10,14,22.50
2019,08,04,10,15,22.50
2019,08,04,10,16,22.50
2019,08,04,10,17,22.50
2019,08,04,10,18,22.60
2019,08,04,10,19,22.60
2019,08,04,10,20,22.60
2019,08,04,10,21,22.70
2019,08,04,10,22,22.80
2019,08,04,10,23,22.90
2019,08,04,10,24,23.00
2019,08,04,10,25,23.00
2019,08,04,10,26,23.10
2019,08,04,10,27,23.10
2019,08,04,10,28,23.10
2019,08,04,10,29,23.10
2019,08,04,10,30,23.10
2019,08,04,10,31,23.10
2019,08,04,10,32,23.10
2019,08,04,10,33,23.10
2019,08,04,10,34,23.10
2019,08,04,10,35,23.10
2019,08,04,10,36,23.10
2019,08,04,10,37,23.10
2019,08,04,10,38,23.00
2019,08,04,10,39,23.00
2019,08,04,10,40,23.00
2019,08,04,10,41,23.10
2019,08,04,10,42,23.10
2019,08,04,10,43,23.20
2019,08,04,10,44,23.20
2019,08,04,10,45,23.20
2019,08,04,10,46,23.20
2019,08,04,10,47,23.10
2019,08,04,10,48,23.00
2019,08,04,10,49,23.00
2019,08,04,10,50,23.00
2019,08,04,10,51,23.00
2019,08,04,10,52,23.10
2019,08,04,10,53,23.20
2019,08,04,10,54,23.20
2019,08,04,10,55,23.20
2019,08,04,10,56,23.20
2019,08,04,10,57,23.20
2019,08,04,10,58,23.20
2019,08,04,10,59,23.10
2019,08,04,11,00,23.10
2019,08,04,11,01,23.10
2019,08,04,11,02,23.10
2019,08,04,11,03,23.10
2019,08,04,11,04,23.10
2019,08,04,11,05,23.10
2019,08,04,11,06,23.20
2019,08,04,11,07,23.30
2019,08,04,11,08,23.30
2019,08,04,11,09,23.40
2019,08,04,11,10,23.40
2019,08,04,11,11,23.30
2019,08,04,11,12,23.40
2019,08,04,11,13,23.30
2019,08,04,11,14,23.30
2019,08,04,11,15,23.30
2019,08,04,11,16,23.30
2019,08,04,11,17,23.30
2019,08,04,11,18,23.20
2019,08,04,11,19,23.10
2019,08,04,11,20,23.10
2019,08,04,11,21,23.10
2019,08,04,11,22,23.10
2019,08,04,11,23,23.10
2019,08,04,11,24,23.10
2019,08,04,11,25,23.00
2019,08,04,11,26,23.00
2019,08,04,11,27,23.10
2019,08,04,11,28,23.10
2019,08,04,11,29,23.20
2019,08,04,11,30,23.30
2019,08,04,11,31,23.30
2019,08,04,11,32,23.40
2019,08,04,11,33,23.40
2019,08,04,11,34,23.50
2019,08,04,11,35,23.50
2019,08,04,11,36,23.50
2019,08,04,11,37,23.50
2019,08,04,11,38,23.60
2019,08,04,11,39,23.60
2019,08,04,11,40,23.60
2019,08,04,11,41,23.70
2019,08,04,11,42,23.70
2019,08,04,11,43,23.80
2019,08,04,11,44,23.80
2019,08,04,11,45,23.90
2019,08,04,11,46,24.00
2019,08,04,11,47,24.10
2019,08,04,11,48,24.10
2019,08,04,11,49,24.10
2019,08,04,11,50,24.20
2019,08,04,11,51,24.20
2019,08,04,11,52,24.30
2019,08,04,11,53,24.30
2019,08,04,11,54,24.30
2019,08,04,11,55,24.20
2019,08,04,11,56,24.10
2019,08,04,11,57,24.10
2019,08,04,11,58,24.00
2019,08,04,11,59,24.00
2019,08,04,12,00,24.00
2019,08,04,12,01,24.10
2019,08,04,12,02,24.20
2019,08,04,12,03,24.30
2019,08,04,12,04,24.40
2019,08,04,12,05,24.40
2019,08,04,12,06,24.40
2019,08,04,12,07,24.40
2019,08,04,12,08,24.50
2019,08,04,12,09,24.50
2019,08,04,12,10,24.60
2019,08,04,12,11,24.60
2019,08,04,12,12,24.60
2019,08,04,12,13,24.60
2019,08,04,12,14,24.60
2019,08,04,12,15,24.60
2019,08,04,12,16,24.70
2019,08,04,12,17,24.70
2019,08,04,12,18,24.60
2019,08,04,12,19,24.50
2019,08,04,12,20,24.30
2019,08,04,12,21,24.30
2019,08,04,12,22,24.30
2019,08,04,12,23,24.30
2019,08,04,12,24,24.40
2019,08,04,12,25,24.50
2019,08,04,12,26,24.60
2019,08,04,12,27,24.70
2019,08,04,12,28,24.80
2019,08,04,12,29,24.80
2019,08,04,12,30,24.90
2019,08,04,12,31,24.90
2019,08,04,12,32,24.90
2019,08,04,12,33,24.90
2019,08,04,12,34,24.90
2019,08,04,12,35,24.90
2019,08,04,12,36,24.90
2019,08,04,12,37,24.80
2019,08,04,12,38,24.70
2019,08,04,12,39,24.70
2019,08,04,12,40,24.70
2019,08,04,12,41,24.80
2019,08,04,12,42,24.90
2019,08,04,12,43,25.00
2019,08,04,12,44,25.10
2019,08,04,12,45,25.20
2019,08,04,12,46,25.30
2019,08,04,12,47,25.30
2019,08,04,12,48,25.50
2019,08,04,12,49,25.60
2019,08,04,12,50,25.60
2019,08,04,12,51,25.70
2019,08,04,12,52,25.60
2019,08,04,12,53,25.60
2019,08,04,12,54,25.70
2019,08,04,12,55,25.70
2019,08,04,12,56,25.70
2019,08,04,12,57,25.70
2019,08,04,12,58,25.70
2019,08,04,12,59,25.70
2019,08,04,13,00,25.60
2019,08,04,13,01,25.70
2019,08,04,13,02,25.70
2019,08,04,13,03,25.80
2019,08,04,13,04,25.80
2019,08,04,13,05,25.90
2019,08,04,13,06,25.90
2019,08,04,13,07,25.80
2019,08,04,13,08,25.70
2019,08,04,13,09,25.70
2019,08,04,13,10,25.60
2019,08,04,13,11,25.60
2019,08,04,13,12,25.60
2019,08,04,13,13,25.60
2019,08,04,13,14,25.60
2019,08,04,13,15,25.80
2019,08,04,13,16,25.80
2019,08,04,13,17,25.80
2019,08,04,13,18,25.80
2019,08,04,13,19,25.80
2019,08,04,13,20,25.90
2019,08,04,13,21,25.90
2019,08,04,13,22,25.90
2019,08,04,13,23,25.90
2019,08,04,13,24,25.90
2019,08,04,13,25,25.90
2019,08,04,13,26,26.00
2019,08,04,13,27,26.10
2019,08,04,13,28,26.10
2019,08,04,13,29,26.10
2019,08,04,13,30,26.20
2019,08,04,13,31,26.20
2019,08,04,13,32,26.20
2019,08,04,13,33,26.10
2019,08,04,13,34,26.10
2019,08,04,13,35,25.90
2019,08,04,13,36,25.90
2019,08,04,13,37,25.90
2019,08,04,13,38,25.90
2019,08,04,13,39,25.90
2019,08,04,13,40,25.90
2019,08,04,13,41,26.00
2019,08,04,13,42,26.10
2019,08,04,13,43,26.20
2019,08,04,13,44,26.30
2019,08,04,13,45,26.30
2019,08,04,13,46,26.30
2019,08,04,13,47,26.30
2019,08,04,13,48,26.30
2019,08,04,13,49,26.40
2019,08,04,13,50,26.40
2019,08,04,13,51,26.40
2019,08,04,13,52,26.50
2019,08,04,13,53,26.60
2019,08,04,13,54,26.60
2019,08,04,13,55,26.70
2019,08,04,13,56,26.70
2019,08,04,13,57,26.60
2019,08,04,13,58,26.60
2019,08,04,13,59,26.60
2019,08,04,14,00,26.60
2019,08,04,14,01,26.60
2019,08,04,14,02,26.60
2019,08,04,14,03,26.60
2019,08,04,14,04,26.70
2019,08,04,14,05,26.70
2019,08,04,14,06,26.80
2019,08,04,14,07,26.80
2019,08,04,14,08,26.80
2019,08,04,14,09,26.80
2019,08,04,14,10,26.80
2019,08,04,14,11,26.80
2019,08,04,14,12,26.90
2019,08,04,14,13,26.90
2019,08,04,14,14,26.90
2019,08,04,14,15,26.90
2019,08,04,14,16,26.90
2019,08,04,14,17,26.90
2019,08,04,14,18,26.90
2019,08,04,14,19,27.00
2019,08,04,14,20,27.00
2019,08,04,14,21,27.10
2019,08,04,14,22,27.20
2019,08,04,14,23,27.30
2019,08,04,14,24,27.30
2019,08,04,14,25,27.30
2019,08,04,14,26,27.40
2019,08,04,14,27,27.40
2019,08,04,14,28,27.50
2019,08,04,14,29,27.50
2019,08,04,14,30,27.60
2019,08,04,14,31,27.60
2019,08,04,14,32,27.60
2019,08,04,14,33,27.60
2019,08,04,14,34,27.70
2019,08,04,14,35,27.70
2019,08,04,14,36,27.70
2019,08,04,14,37,27.60
2019,08,04,14,38,27.60
2019,08,04,14,39,27.60
2019,08,04,14,40,27.60
2019,08,04,14,41,27.60
2019,08,04,14,42,27.60
2019,08,04,14,43,27.60
2019,08,04,14,44,27.70
2019,08,04,14,45,27.70
2019,08,04,14,46,27.70
2019,08,04,14,47,27.70
2019,08,04,14,48,27.70
2019,08,04,14,49,27.70
2019,08,04,14,50,27.60
2019,08,04,14,51,27.60
2019,08,04,14,52,27.60
2019,08,04,14,53,27.60
2019,08,04,14,54,27.60
2019,08,04,14,55,27.60
2019,08,04,14,56,27.70
2019,08,04,14,57,27.80
2019,08,04,14,58,27.80
2019,08,04,14,59,27.80
2019,08,04,15,00,27.80
2019,08,04,15,01,27.80
2019,08,04,15,02,27.80
2019,08,04,15,03,27.90
2019,08,04,15,04,27.90
2019,08,04,15,05,28.00
2019,08,04,15,06,28.10
2019,08,04,15,07,28.10
2019,08,04,15,08,28.00
2019,08,04,15,09,27.90
2019,08,04,15,10,27.80
2019,08,04,15,11,27.80
2019,08,04,15,12,27.80
2019,08,04,15,13,27.80
2019,08,04,15,14,27.80
2019,08,04,15,15,27.80
2019,08,04,15,16,27.90
2019,08,04,15,17,28.00
2019,08,04,15,18,28.10
2019,08,04,15,19,28.20
2019,08,04,15,20,28.20
2019,08,04,15,21,28.20
2019,08,04,15,22,28.20
2019,08,04,15,23,28.10
2019,08,04,15,24,28.10
2019,08,04,15,25,28.10
2019,08,04,15,26,28.10
2019,08,04,15,27,28.20
2019,08,04,15,28,28.20
2019,08,04,15,29,28.30
2019,08,04,15,30,28.30
2019,08,04,15,31,28.30
2019,08,04,15,32,28.40
2019,08,04,15,33,28.40
2019,08,04,15,34,28.40
2019,08,04,15,35,28.50
2019,08,04,15,36,28.60
2019,08,04,15,37,28.70
2019,08,04,15,38,28.70
2019,08,04,15,39,28.80
2019,08,04,15,40,28.80
2019,08,04,15,41,28.80
2019,08,04,15,42,28.80
2019,08,04,15,43,28.80
2019,08,04,15,44,28.70
2019,08,04,15,45,28.70
2019,08,04,15,46,28.70
2019,08,04,15,47,28.80
2019,08,04,15,48,28.80
2019,08,04,15,49,28.90
2019,08,04,15,50,29.00
2019,08,04,15,51,29.10
2019,08,04,15,52,29.20
2019,08,04,15,53,29.20
2019,08,04,15,54,29.20
2019,08,04,15,55,29.20
2019,08,04,15,56,29.20
2019,08,04,15,57,29.20
2019,08,04,15,58,29.30
2019,08,04,15,59,29.30
2019,08,04,16,00,29.40
2019,08,04,16,01,29.40
2019,08,04,16,02,29.30
2019,08,04,16,03,29.30
2019,08,04,16,04,29.40
2019,08,04,16,05,29.40
2019,08,04,16,06,29.40
2019,08,04,16,07,29.40
2019,08,04,16,08,29.40
2019,08,04,16,09,29.30
2019,08,04,16,10,29.30
2019,08,04,16,11,29.40
2019,08,04,16,12,29.40
2019,08,04,16,13,29.40
2019,08,04,16,14,29.40
2019,08,04,16,15,29.50
2019,08,04,16,16,29.60
2019,08,04,16,17,29.60
2019,08,04,16,18,29.60
2019,08,04,16,19,29.50
2019,08,04,16,20,29.50
2019,08,04,16,21,29.40
2019,08,04,16,22,29.40
2019,08,04,16,23,29.30
2019,08,04,16,24,29.30
2019,08,04,16,25,29.30
2019,08,04,16,26,29.30
2019,08,04,16,27,29.30
2019,08,04,16,28,29.30
2019,08,04,16,29,29.30
2019,08,04,16,30,29.20
2019,08,04,16,31,29.20
2019,08,04,16,32,29.10
2019,08,04,16,33,29.10
2019,08,04,16,34,29.20
2019,08,04,16,35,29.20
2019,08,04,16,36,29.20
2019,08,04,16,37,29.20
2019,08,04,16,38,29.10
2019,08,04,16,39,29.10
2019,08,04,16,40,29.10
2019,08,04,16,41,29.10
2019,08,04,16,42,29.10
2019,08,04,16,43,29.00
2019,08,04,16,44,29.00
2019,08,04,16,45,29.00
2019,08,04,16,46,28.90
2019,08,04,16,47,28.90
2019,08,04,16,48,28.90
2019,08,04,16,49,29.00
2019,08,04,16,50,29.00
2019,08,04,16,51,29.10
2019,08,04,16,52,29.10
2019,08,04,16,53,29.10
2019,08,04,16,54,29.10
2019,08,04,16,55,29.10
2019,08,04,16,56,29.20
2019,08,04,16,57,29.20
2019,08,04,16,58,29.20
2019,08,04,16,59,29.10
2019,08,04,17,00,29.10
2019,08,04,17,01,28.90
2019,08,04,17,02,28.90
2019,08,04,17,03,28.90
2019,08,04,17,04,28.80
2019,08,04,17,05,28.80
2019,08,04,17,06,28.90
2019,08,04,17,07,28.90
2019,08,04,17,08,28.90
2019,08,04,17,09,28.90
2019,08,04,17,10,29.00
2019,08,04,17,11,29.00
2019,08,04,17,12,29.00
2019,08,04,17,13,29.00
2019,08,04,17,14,28.90
2019,08,04,17,15,28.90
2019,08,04,17,16,28.80
2019,08,04,17,17,28.80
2019,08,04,17,18,28.80
2019,08,04,17,19,28.90